Alexandroupoli, Greece

8:34 PM EET on November 12, 2019 (GMT +0200)
Dimokritos

Weather History for LGAL - October, 2019

Change the Weather History Date:

Wednesday, October 23, 2019

  Actual Average Record
Temperature  
Mean Temperature 64 °F -  
Max Temperature 77 °F 61 °F 73 °F (2004)
Min Temperature 51 °F 45 °F 42 °F (1996)
Degree Days  
Heating Degree Days 1    
Growing Degree Days 14 (Base 50)    
Moisture  
Dew Point 50 °F    
Average Humidity 60    
Maximum Humidity 94    
Minimum Humidity 27    
Precipitation  
Precipitation 0.00 in 0.09 in - ()
Sea Level Pressure  
Sea Level Pressure 30.15 in    
Wind  
Wind Speed 7 mph ()    
Max Wind Speed 17 mph    
Max Gust Speed -    
Visibility 6.0 miles    
Events      
Averages and records for this station are not official NWS values.
T = Trace of Precipitation, MM = Missing Value Source: Averaged Metar Reports

Daily Weather History Graph

Daily Weather History Graph

Search for Another Location

Airport or City:

Astronomy

Oct. 23, 2019 Rise Set
Actual Time 7:35 AM EEST 6:24 PM EEST
Civil Twilight 7:07 AM EEST 6:52 PM EEST
Nautical Twilight 6:35 AM EEST 7:24 PM EEST
Astronomical Twilight 6:04 AM EEST 7:56 PM EEST
Moon 1:28 AM EEST (10/23) 4:05 PM EEST (10/23)
Length of Visible Light 11h 44m
Length of Day
10h 48m
Waning Crescent, 30% of the Moon is Illuminated
Oct 23
Waning Crescent
Oct 28
New
Nov 4
First Quarter
Nov 12
Full
Nov 19
Last Quarter

Hourly Weather History & Observations

Time (EEST) Temp. Dew Point Humidity Pressure Visibility Wind Dir Wind Speed Gust Speed Precip Events Conditions
5:20 AM 51.8 °F 48.2 °F 88% 30.18 in - Variable 3.5 mph - N/A   Clear
5:50 AM 55.4 °F 53.6 °F 94% 30.18 in - ENE 5.8 mph - N/A   Clear
6:20 AM 55.4 °F 53.6 °F 94% 30.18 in - ENE 6.9 mph - N/A   Clear
6:50 AM 55.4 °F 51.8 °F 88% 30.18 in - ENE 5.8 mph - N/A   Clear
7:20 AM 55.4 °F 51.8 °F 88% 30.18 in - NE 5.8 mph - N/A   Clear
7:50 AM 55.4 °F 51.8 °F 88% 30.18 in - ENE 5.8 mph - N/A   Clear
8:20 AM 55.4 °F 51.8 °F 88% 30.18 in - ENE 8.1 mph - N/A   Clear
8:50 AM 57.2 °F 53.6 °F 88% 30.21 in - ENE 5.8 mph - N/A   Clear
9:00 AM 58 °F 53 °F 78% 30.21 in 6 mi ENE 5.8 mph - -  
9:20 AM 59.0 °F 53.6 °F 82% 30.21 in - ENE 6.9 mph - N/A   Clear
9:50 AM 62.6 °F 53.6 °F 72% 30.21 in - ENE 6.9 mph - N/A   Clear
10:20 AM 64.4 °F 53.6 °F 68% 30.21 in - ENE 12.7 mph - N/A   Clear
10:50 AM 66.2 °F 51.8 °F 60% 30.21 in - ENE 12.7 mph - N/A   Clear
11:20 AM 68.0 °F 51.8 °F 56% 30.21 in - ENE 13.8 mph - N/A   Clear
11:50 AM 68.0 °F 51.8 °F 56% 30.18 in - ENE 16.1 mph - N/A   Clear
12:00 PM 69 °F 51 °F 42% 30.20 in 6 mi ENE 16.1 mph - -  
12:20 PM 68.0 °F 51.8 °F 56% 30.18 in - East 13.8 mph - N/A   Clear
12:50 PM 69.8 °F 51.8 °F 53% 30.18 in - ENE 16.1 mph - N/A   Clear
1:20 PM 71.6 °F 51.8 °F 50% 30.18 in - ENE 17.3 mph - N/A   Clear
1:50 PM 73.4 °F 46.4 °F 38% 30.15 in - ENE 15.0 mph - N/A   Clear
2:20 PM 73.4 °F 46.4 °F 38% 30.15 in - ENE 15.0 mph - N/A   Clear
2:50 PM 75.2 °F 48.2 °F 38% 30.12 in - ENE 8.1 mph - N/A   Clear
3:00 PM 75 °F 48 °F 27% 30.14 in 6 mi ENE 8.1 mph - -  
3:20 PM 75.2 °F 48.2 °F 38% 30.12 in - ENE 8.1 mph - N/A   Clear
3:50 PM 77.0 °F 46.4 °F 34% 30.12 in - ENE 8.1 mph - N/A   Clear
4:20 PM 77.0 °F 46.4 °F 34% 30.12 in - ENE 8.1 mph - N/A   Clear
4:50 PM 77.0 °F 44.6 °F 32% 30.09 in - ENE 8.1 mph - N/A   Clear
5:50 PM 75.2 °F 46.4 °F 36% 30.09 in - NE 8.1 mph - N/A   Clear
6:20 PM 73.4 °F 50.0 °F 44% 30.09 in - NE 8.1 mph - N/A   Clear
6:50 PM 68.0 °F 48.2 °F 49% 30.09 in - Variable 3.5 mph - N/A   Clear
7:20 PM 68.0 °F 48.2 °F 49% 30.09 in - Variable 3.5 mph - N/A   Clear
7:50 PM 62.6 °F 48.2 °F 59% 30.12 in - NNE 4.6 mph - N/A   Clear
8:20 PM 62.6 °F 48.2 °F 59% 30.12 in - NNE 4.6 mph - N/A   Clear
8:50 PM 60.8 °F 48.2 °F 63% 30.12 in - North 4.6 mph - N/A   Clear
9:00 PM 60 °F 48 °F 55% 30.12 in 6 mi North 4.6 mph - -   Clear
9:20 PM 59.0 °F 48.2 °F 67% 30.12 in - North 4.6 mph - N/A   Clear
9:50 PM 60.8 °F 48.2 °F 63% 30.12 in - North 4.6 mph - N/A   Clear
10:20 PM 60.8 °F 48.2 °F 63% 30.12 in - North 4.6 mph - N/A   Clear